Regional Weather Roundup
Issued by NWS Wilmington, NC

Home | Current Version | Previous Version | Text Only | Print | Product List | Glossary On
Versions: 1 2 3 4 5 6 7 8 9 10 11 12 13 14 15 16 17 18 19 20 21 22 23 24 25 26 27 28
000
ASUS42 KILM 280413
RWRILM
RWRILM
REGIONAL HOURLY WEATHER ROUNDUP
NATIONAL WEATHER SERVICE WILMINGTON NC
1200 AM EDT FRI APR 28 2017

NOTE: "FAIR" INDICATES FEW OR NO CLOUDS BELOW 12,000 FEET WITH NO
SIGNIFICANT WEATHER AND/OR OBSTRUCTIONS TO VISIBILITY.

...............WFO WILMINGTON COUNTY WARNING AREA...............

......COASTAL NC AND SC COUNTIES......

CITY           SKY/WX    TMP DP  RH WIND       PRES   REMARKS
WILMINGTON     CLOUDY    75  72  90 S9G20     29.96F
N MYRTLE BEACH CLOUDY    72  72 100 S13       29.96F
MYRTLE BEACH   PTCLDY    74  72  93 S12       29.97F

......INLAND NC AND SC COUNTIES.......

CITY           SKY/WX    TMP DP  RH WIND       PRES   REMARKS
LUMBERTON      CLOUDY    72  70  93 S8        29.92F
ELIZABETHTOWN  CLOUDY    74  71  91 S7        29.95S
WHITEVILLE     PTCLDY    74  71  90 S9        29.95S
FLORENCE       CLOUDY    72  67  84 S8        29.93F
DARLINGTON     CLOUDY    73  65  75 S7        29.94R
KINGSTREE      FAIR      72  66  83 SE8       29.93S
HARTSVILLE     CLOUDY    70  63  78 S5        29.93R
BENNETTSVILLE  MOCLDY    73  66  78 S6        29.93R
CONWAY         MOCLDY    72  70  94 S8        29.95F
GEORGETOWN     FAIR      73  72  94 S9        29.97F
MARION         FAIR      72  68  88 S8        29.92F

....................REST OF NORTH CAROLINA......................

.........EASTERN NC.........

CITY           SKY/WX    TMP DP  RH WIND       PRES   REMARKS
CAPE HATTERAS  CLEAR     73  68  84 SW8       30.00R HAZE
JACKSONVILLE   CLOUDY    72  69  90 S9        29.97S
MOREHEAD CITY  PTCLDY    73  72  96 S12       29.99S
KENANSVILLE    CLOUDY    73  68  83 CALM      29.95F
NEW BERN       CLOUDY    72  70  93 S9        29.98S
ELIZABETH CITY PTCLDY    72  66  81 S15       29.95R

.........CENTRAL NC.........

CITY           SKY/WX    TMP DP  RH WIND       PRES   REMARKS
RALEIGH DURHAM CLOUDY    74  64  71 S13       29.92R
ROCKY MOUNT    CLOUDY    71  66  84 S6        29.93S
ROANOKE RAPIDS NOT AVBL
FAYETTEVILLE   CLOUDY    74  68  81 S10       29.92F
HOFFMAN        CLOUDY    73  64  75 S9        29.92F

.........WESTERN NC.........

CITY           SKY/WX    TMP DP  RH WIND       PRES   REMARKS
CHARLOTTE      CLOUDY    71  66  84 S8        29.92R
GREENSBORO     CLOUDY    67  67 100 CALM      29.91S
HICKORY        NOT AVBL
BOONE          NOT AVBL
ASHEVILLE      NOT AVBL

.....................REST OF SOUTH CAROLINA.....................

.........EASTERN SC.........

CITY           SKY/WX    TMP DP  RH WIND       PRES   REMARKS
CHARLESTON     CLOUDY    75  71  87 S12       29.95F
BEAUFORT MCAS  CLOUDY    77  74  90 S13G21    29.94F
HILTON HEAD    MOCLDY    75  75 100 S10G20    29.96F

.........CENTRAL SC.........

CITY           SKY/WX    TMP DP  RH WIND       PRES   REMARKS
COLUMBIA       CLOUDY    75  63  66 S3        29.90R
ORANGEBURG     CLOUDY    73  63  70 S6        29.93R
SUMTER SHAW    CLOUDY    73  62  68 S7        29.91R

.........WESTERN SC.........

CITY           SKY/WX    TMP DP  RH WIND       PRES   REMARKS
GREENVILLE     NOT AVBL
ROCK HILL      CLOUDY    69  67  93 S5        29.92S
ANDERSON       CLEAR     67  65  93 CALM      29.90S
CLEMSON        NOT AVBL
GREENWOOD      MOCLDY    67  65  93 SW5       29.92R


...................COASTAL AND OFFSHORE REPORTS..................

................LOCAL PIERS AND NC RESERVE................


STATION/POSITION TIME  SKY/WX   TEMP    WIND        PRES    VSBY
                                AIR SEA DIR/SP/G
                 (UTC)          (F)     (DEG/KT/KT) (MB)    (MI)
JOHNY MRCER PIER 0348            72 72  190/ 13/ 15 1014.1F
NC RESRV MASNBRO 0245            74     250/  7     1016.0
OCEAN CREST PIER NOT AVBL
SPRINGMAID  PIER 0348                               1014.0F


................COASTAL AND OFFSHORE BUOYS................


STATION/POSITION TIME  SKY/WX   TEMP    WIND        PRES    VSBY
                                AIR SEA DIR/SP/G
                 (UTC)          (F)     (DEG/KT/KT) (MB)    (MI)
DIMNDSHOAL 41025 0350            77 77  210/ 19/ 21 1015.5R
WVE H/P(F/S)=  6/ 6 SWL H/P/D(F/S/D)=  2/110/ 9

CAPE LOOKOUT     0400            73     200/  9/ 12 1015.5R
ONSLOW BAY 41036 NOT AVBL
ONSLOW BAY 41064 0308            73     210/ 10/ 12 1015.9R
ONSLOW BAY 41159 0343               72                N/A
WVE H/P(F/S)=  5/ 8 SWL H/P/D(F/S/D)=  2/ 90/12

MASNBO INL 41110 0359               71                N/A
WVE H/P(F/S)=  3/ 9

WILM HARBR 41108 0347               71                N/A
WVE H/P(F/S)=  4/ 6

27SE WRITB 41037 0308            73 72  190/  8/ 10 1015.1R
FRYING PAN 41013 0350            75 73  200/ 10/ 12 1015.8R
WVE H/P(F/S)=  4/ 8 SWL H/P/D(F/S/D)=  3/130/ 8

SUNST NRSH 41024 0308            72 71  190/  6/ 10 1014.9R
CAPRS NRSH 41029 0308            75 73  190/ 14/ 19 1014.0R
EDISTO     41004 0350            76 74  180/ 14/ 16 1014.5R
WVE H/P(F/S)=  4/ 8 SWL H/P/D(F/S/D)=  3/140/ 8



..........OFFSHORE BUOYS BEYOND 100 NM OFFSHORE...........
.....IN A TRIANGLE---HAT TO BERMUDA TO BAHAMAS TO HAT.....


STATION/POSITION TIME  SKY/WX   TEMP    WIND        PRES    VSBY
                                AIR SEA DIR/SP/G
                 (UTC)          (F)     (DEG/KT/KT) (MB)    (MI)
150E HAT   41001 0350            72 72  170/ 14/ 16 1018.1R
WVE H/P(F/S)=  5/ 6 SWL H/P/D(F/S/D)=  3/170/ 7

W BERMUDA  41048 0350            71 71  150/  8/ 10 1022.0S
WVE H/P(F/S)=  5/ 7 SWL H/P/D(F/S/D)=  5/130/ 7

ATLANTIC S 41049 0350            72 72   90/ 10/ 12 1023.8F
WVE H/P(F/S)=  4/11 SWL H/P/D(F/S/D)=  3/ 60/11

E BAHAMAS  41046 0350            77 78  100/ 12/ 14 1019.4F
WVE H/P(F/S)=  4/11 SWL H/P/D(F/S/D)=  3/ 90/11

NE BAHAMAS 41047 0350            75 76  120/ 12/ 14 1020.6F
WVE H/P(F/S)=  4/ 7 SWL H/P/D(F/S/D)=  3/130/ 7

120E CANVRL41010 0350            78 78  140/ 16/ 19 1016.1R
WVE H/P(F/S)=  4/ 8 SWL H/P/D(F/S/D)=  3/110/ 8


END




USA.gov is the U.S. government's official web portal to all federal, state and local government web resources and services.